Location: Namasale
(1.5000°N, 32.6167°E)
Time: 18:09:03
(UTC+00:00)

Vanguard 1 Rocket - Pass Details

Date: 20 April 2021
Orbit: 652 x 4224 km, 34.3° (Epoch: 09 May)

Event Time Altitude Azimuth Distance (km) Brightness Sun altitude
Rises 23:42:28 0° 248° (WSW) 6,763 - -58.8°
Reaches altitude 10° 23:48:42 10° 233° (SW) 6,318 - -57.4°
Maximum altitude 00:03:48 21° 189° (S) 6,255 - -54.0°
Exits shadow 00:06:32 21° 182° (S) 6,366 11.4 -53.3°
Drops below altitude 10° 00:21:35 10° 146° (SE) 7,365 12.1 -49.8°
Sets 00:30:08 0° 131° (SE) 8,108 12.5 -47.8°
